GFSSW_prec_cloud_297.txt.gz
Cloud_Cover
7 5 2 0 5 1 5 66 5 2 0 0 0 0 0 2 0 0 0 0 2 5 5 63 81 100 100 98 38 100 55 70 76 100 94 77 88 95 95 95 100 35 6 1 5
0 0 1 5 1 3 5 0 3 0 0 0 0 0 0 0 0 4 0 0 2 4 16 88 64 80 100 100 100 100 100 94 72 100 100 100 100 100 100 100 99 44 5 5 5
5 0 0 0 4 4 0 2 4 0 5 5 5 2 0 3 4 0 0 0 0 0 5 18 68 100 100 100 100 100 100 100 100 100 100 100 100 100 100 100 100 95 100 81 46
0 0 0 0 0 0 0 5 38 5 74 5 2 0 0 4 0 0 0 0 0 3 17 72 100 100 100 100 100 100 100 100 100 100 100 100 100 100 100 95 99 100 30 21 96
0 0 0 0 0 2 0 5 5 30 4 56 5 0 0 0 2 0 0 0 0 5 98 94 84 100 100 100 100 100 100 100 100 100 100 100 100 100 96 26 6 20 32 92 4
6 5 5 5 5 5 5 4 51 5 5 5 5 5 4 5 4 5 5 5 5 28 100 100 76 93 100 100 100 100 100 100 100 100 100 100 100 100 100 59 88 63 100 68 5
4 5 5 5 5 33 75 40 0 2 3 5 0 4 5 5 5 5 20 100 100 100 100 100 100 100 100 100 100 100 100 100 100 100 100 100 100 100 95 87 100 100 82 7 0
5 5 5 5 5 5 5 5 5 5 5 5 5 3 4 5 5 15 81 100 99 100 100 100 100 100 100 100 100 100 100 100 100 100 100 100 100 100 100 69 100 99 5 1 0
30 33 10 6 5 6 5 5 5 5 5 5 4 4 5 5 10 34 38 51 100 100 100 100 100 100 100 100 100 100 100 100 100 100 100 100 100 100 100 99 94 77 6 0 0
95 96 73 84 12 5 9 5 5 5 4 5 5 4 5 6 41 100 100 100 100 100 100 100 100 100 100 100 100 100 100 100 100 100 100 100 100 100 99 100 90 5 4 0 0
100 100 40 60 100 94 37 5 5 4 8 5 6 80 90 77 100 100 83 97 100 100 100 100 100 100 100 100 100 100 100 100 100 100 100 100 100 94 94 14 5 5 0 0 4
100 82 100 100 100 80 91 16 86 51 8 5 17 95 82 70 97 90 70 45 59 82 100 100 100 100 100 100 100 100 100 100 100 100 100 100 85 34 22 8 5 3 0 0 0
100 100 97 100 97 100 83 77 21 68 50 32 29 7 5 5 5 22 5 5 47 70 100 100 100 100 100 100 100 100 100 100 100 100 100 100 100 100 94 5 0 0 0 0 2
87 100 100 100 100 100 99 98 57 90 96 38 5 5 6 11 5 5 5 74 94 98 100 100 100 100 100 100 100 100 100 100 100 100 100 70 100 11 5 0 0 0 0 0 4
80 100 100 100 100 100 100 100 100 99 97 0 5 5 83 96 18 43 48 51 100 100 100 100 100 100 100 100 100 100 100 100 100 100 100 79 88 7 1 2 0 0 0 0 83
100 100 100 100 100 100 100 100 100 98 91 4 8 91 46 53 74 53 47 34 100 100 100 100 100 100 100 100 100 100 100 100 100 100 100 42 15 3 5 4 0 0 0 1 58
100 100 100 100 100 100 100 100 100 100 100 85 95 77 100 98 81 81 60 45 93 100 100 100 100 100 100 100 100 100 100 100 100 100 99 6 35 3 0 0 5 3 0 4 65
100 100 100 100 100 100 100 100 100 100 100 100 100 100 84 76 21 77 100 64 100 100 100 100 100 100 100 100 100 100 100 100 100 100 9 5 7 5 0 0 2 5 5 3 88
100 100 100 100 100 100 100 100 100 100 100 100 50 100 89 95 56 100 100 100 100 100 100 100 100 100 100 100 100 100 100 100 84 84 15 21 11 5 0 0 0 0 5 22 90
100 100 100 100 100 99 100 81 77 100 99 100 100 100 93 92 88 96 81 100 100 100 100 100 100 100 100 100 100 100 100 100 60 18 16 42 5 5 5 2 0 2 5 21 100
100 69 93 89 100 100 92 64 100 81 100 100 100 100 100 100 100 100 87 71 100 100 100 100 100 100 100 100 100 100 100 100 100 14 19 47 17 5 5 5 5 5 5 36 92
100 75 96 100 100 100 100 100 96 97 100 100 100 100 100 100 100 100 100 86 95 100 100 100 100 100 100 100 100 100 100 100 96 100 100 91 52 5 5 5 5 5 5 56 94
98 99 100 100 88 100 100 85 100 100 100 100 100 100 100 100 100 99 100 100 100 100 100 100 100 100 100 100 100 100 100 100 100 100 100 29 6 5 5 5 5 5 5 65 100
85 94 100 100 100 100 100 100 100 100 100 100 100 100 100 100 100 100 100 100 100 100 100 100 100 100 100 100 100 100 100 100 100 100 54 53 9 0 0 3 5 5 5 69 100
99 94 99 100 100 100 100 100 100 100 96 99 100 100 100 100 100 98 100 100 100 100 100 100 100 100 100 100 100 100 100 100 100 100 24 81 16 5 0 3 5 63 10 33 100
51 94 100 100 100 100 100 100 100 100 100 100 100 100 100 98 100 100 100 100 100 100 100 100 100 100 100 100 100 100 100 100 100 87 22 67 6 0 1 5 5 15 80 27 50
94 99 100 100 100 100 100 75 98 100 100 100 100 100 100 100 100 100 100 100 100 100 100 100 100 100 100 100 100 100 100 100 100 75 9 5 5 0 2 0 5 11 90 83 5

GFSSW_prec_cloud_303.txt.gz
Cloud_Cover
5 5 0 0 1 0 0 3 5 5 1 0 0 3 0 0 0 0 0 0 0 0 0 0 0 0 0 0 0 0 0 0 0 0 0 5 37 100 89 13 23 83 36 83 91
2 4 4 4 7 5 5 5 14 5 5 5 4 3 0 0 0 0 0 0 0 0 0 0 0 0 0 0 0 0 0 0 1 4 5 34 99 100 100 100 100 58 75 56 99
61 24 6 99 100 87 92 5 5 5 5 5 5 5 0 0 0 0 2 4 1 0 0 0 0 0 0 0 0 0 0 3 5 13 47 68 99 100 100 88 100 98 100 100 93
32 100 100 78 36 8 4 2 4 2 5 5 1 4 3 0 2 4 5 5 2 2 0 0 0 0 0 0 0 1 5 57 66 98 100 100 100 100 100 100 100 100 100 94 100
23 76 20 63 8 5 21 5 5 38 18 68 96 30 6 5 5 5 5 18 6 42 16 6 4 5 5 4 5 5 15 52 99 100 100 100 100 100 100 100 100 100 97 100 100
100 32 5 5 5 5 5 5 5 5 26 100 32 5 5 13 59 31 5 54 70 5 5 5 5 17 29 78 44 18 85 99 100 100 92 99 91 64 100 100 100 100 100 100 100
100 99 25 11 81 11 6 74 70 59 28 55 86 25 22 21 5 11 8 22 5 5 5 5 30 86 60 97 96 100 99 97 100 100 100 100 100 100 100 100 100 100 100 100 100
100 100 100 90 100 100 95 94 100 71 92 100 100 42 82 90 73 10 11 61 5 5 23 48 56 78 86 92 88 100 96 100 88 100 100 100 100 100 100 100 100 100 100 100 100
100 100 100 100 100 97 8 5 8 39 39 50 5 5 5 16 74 24 5 5 5 5 7 15 36 65 66 96 99 93 99 100 87 100 100 100 100 100 100 100 100 100 100 94 100
97 100 99 93 98 100 72 95 30 50 66 5 5 5 5 5 5 5 5 5 7 6 5 25 98 100 100 100 100 96 90 91 100 76 100 100 100 100 100 100 100 100 100 100 100
100 81 30 5 91 100 100 91 99 61 28 5 4 5 5 4 21 43 30 5 5 0 1 2 6 68 99 64 96 100 95 100 100 100 100 100 100 100 100 100 100 100 100 100 67
100 38 21 9 98 100 100 100 100 92 93 58 4 7 64 46 94 55 66 20 3 4 2 0 3 5 73 100 94 100 100 100 100 100 100 100 100 100 100 100 100 100 99 99 98
84 87 80 100 100 100 100 100 97 92 94 54 45 65 92 83 58 5 4 5 5 5 5 5 5 5 6 83 97 98 100 100 100 100 100 100 100 100 100 100 100 79 54 29 19
100 100 100 100 100 100 100 100 100 100 100 100 88 99 26 43 5 5 30 49 5 5 5 5 5 52 87 100 100 100 100 100 100 100 100 100 100 100 100 100 94 96 7 5 2
100 100 100 100 100 100 100 100 100 100 100 7 40 98 100 48 5 22 56 75 5 5 5 6 17 46 100 100 100 100 100 100 100 100 100 100 100 100 100 100 44 5 0 0 4
100 100 100 98 100 100 100 99 100 100 100 99 99 100 100 100 98 100 100 5 5 5 5 73 8 59 100 100 100 100 100 100 100 100 100 100 100 100 100 53 5 3 0 0 5
100 100 100 100 100 94 95 99 100 100 60 100 100 100 100 100 100 100 100 7 19 6 5 83 23 56 100 100 100 100 100 100 100 100 100 43 32 18 16 5 2 3 0 4 5
45 100 95 100 100 100 100 73 97 50 97 100 100 100 100 100 100 100 74 5 5 5 46 100 99 62 100 100 100 100 100 100 100 100 96 46 18 23 5 4 0 1 0 4 5
5 24 67 95 100 93 97 100 62 84 74 100 91 100 100 100 100 100 56 22 7 11 67 100 100 96 100 100 100 100 100 100 100 100 100 29 30 7 5 5 0 0 0 5 50
58 44 85 72 100 100 98 94 87 69 71 7 24 39 100 100 100 93 34 67 55 64 80 95 98 100 100 100 100 100 100 100 100 100 53 47 32 89 8 1 0 0 5 5 7
100 88 57 28 76 83 100 44 33 5 4 56 83 96 100 100 100 100 74 94 98 100 100 72 85 100 100 100 100 100 100 100 100 69 99 100 100 76 5 1 2 4 5 5 59
99 97 34 4 94 93 89 84 79 61 16 54 100 100 100 100 100 96 83 100 100 100 100 100 91 100 100 100 100 100 100 100 100 85 100 100 65 5 5 5 5 5 5 5 36
79 100 38 12 98 92 65 96 61 43 81 96 100 100 100 100 95 100 100 100 100 100 100 100 97 100 100 98 100 100 100 100 98 100 100 100 8 5 5 5 2 5 5 5 65
60 100 98 98 98 89 96 100 100 88 99 100 100 100 100 100 100 100 100 100 100 100 100 100 97 100 100 100 100 100 100 100 100 100 100 24 18 42 5 5 0 1 5 38 93
39 74 98 98 92 100 100 100 100 100 100 99 100 100 100 98 100 100 100 100 100 100 100 91 92 100 100 100 100 100 100 100 100 96 57 30 34 5 5 0 0 5 5 5 65
58 92 100 100 100 100 100 100 100 100 100 100 100 100 100 100 100 100 100 100 100 100 100 94 99 100 100 100 100 100 100 100 80 91 65 31 6 5 1 0 0 5 5 5 54
71 54 44 100 100 98 77 96 98 100 88 100 100 100 100 100 100 100 100 100 100 100 100 100 100 100 100 100 100 100 100 99 100 83 57 5 18 5 0 0 0 3 6 56 64

GFSSW_prec_cloud_306.txt.gz
Cloud_Cover
1 7 5 3 4 4 5 4 62 5 0 0 0 2 5 0 0 2 0 0 0 0 0 0 0 0 0 0 0 0 0 0 0 0 0 0 0 0 0 0 0 2 5 11 1
3 0 0 4 5 6 67 100 43 9 5 5 3 2 3 2 3 0 0 0 0 3 3 2 0 0 0 4 4 0 0 0 0 0 0 0 0 0 4 4 6 4 3 25 90
51 22 5 5 5 9 97 100 79 5 5 15 11 5 5 2 5 5 5 5 5 1 3 5 5 0 3 5 5 4 0 0 0 0 0 0 4 5 10 44 52 73 100 100 100
100 100 7 5 5 5 5 5 4 5 5 29 7 5 5 10 5 5 5 3 7 5 5 2 5 5 5 5 1 0 0 0 0 0 0 5 5 5 24 73 97 92 72 96 100
100 100 100 73 0 5 4 5 5 13 72 5 6 36 99 67 5 9 5 5 11 81 89 78 38 5 5 5 5 1 4 4 2 2 5 5 15 72 100 99 67 92 60 34 99
100 95 97 100 100 100 70 85 93 100 100 100 100 100 18 6 5 5 5 5 5 5 6 5 5 5 5 5 5 4 5 6 19 49 35 80 100 16 91 88 100 97 73 20 51
100 100 100 100 100 100 100 100 100 100 98 100 100 34 21 5 5 5 4 5 5 5 5 5 5 34 11 11 5 6 40 79 55 72 69 51 27 47 93 100 80 100 100 92 98
100 100 100 100 100 100 100 100 100 100 100 76 5 5 5 6 5 5 2 4 5 5 5 5 5 5 16 24 75 100 91 43 30 20 47 43 48 97 100 100 100 100 100 100 100
91 100 100 100 100 100 100 100 100 100 100 82 22 8 5 4 5 5 2 4 5 5 5 5 5 16 21 91 100 90 62 83 35 42 81 24 96 100 100 100 100 100 100 100 100
23 62 90 100 66 42 100 26 26 12 28 15 46 6 5 5 5 5 5 0 0 5 14 96 34 12 65 96 100 100 84 10 77 50 79 20 92 72 100 100 100 100 100 100 100
93 99 100 99 60 90 76 76 64 33 72 68 21 7 5 4 5 16 5 4 0 5 62 11 2 4 5 5 5 19 84 76 99 67 85 83 100 100 100 100 100 100 100 100 100
100 100 98 95 100 100 100 100 100 77 53 70 58 30 46 25 32 5 5 5 5 5 5 2 0 2 0 5 3 5 77 75 92 85 100 100 100 100 100 100 100 100 100 100 100
100 100 100 100 99 100 100 100 99 48 48 20 94 96 42 5 5 5 5 5 5 5 5 5 3 2 5 5 5 10 100 100 98 100 100 99 100 100 100 100 100 100 100 100 100
95 100 100 100 98 50 22 100 100 98 97 95 90 11 72 97 92 99 46 5 5 5 5 5 5 5 5 5 36 100 100 100 100 96 100 100 100 100 100 100 100 100 100 100 99
68 100 100 100 100 100 81 98 100 100 98 39 6 55 15 98 100 100 98 88 24 66 5 5 6 88 5 5 58 100 100 100 100 100 100 100 100 100 100 100 100 95 26 4 3
60 81 97 100 88 98 100 20 23 96 88 69 80 66 100 100 100 100 96 100 100 100 5 5 5 22 5 5 39 100 100 100 100 100 100 100 100 100 100 48 5 5 4 0 4
18 39 81 98 97 91 100 97 87 98 35 86 71 83 100 100 100 100 100 100 100 100 80 5 5 19 68 31 94 100 100 100 100 100 100 98 100 96 73 74 80 31 5 1 5
5 48 46 95 100 85 100 27 73 12 56 33 66 43 100 100 100 100 100 100 100 88 46 86 47 5 64 85 100 100 100 100 100 100 100 100 100 100 98 61 6 5 5 1 5
5 94 86 84 100 78 99 95 81 67 81 84 86 30 99 100 100 100 100 100 100 91 83 94 48 48 99 95 100 100 100 100 100 100 100 100 85 63 38 58 6 3 5 5 11
14 100 27 67 92 100 83 46 6 31 98 63 16 4 77 69 100 100 100 100 100 100 91 90 76 99 100 100 100 100 100 100 100 100 100 97 91 100 100 20 5 5 5 5 9
20 39 56 5 98 75 98 54 40 17 3 32 53 64 40 100 52 100 100 100 100 100 100 90 90 95 100 100 100 100 100 100 100 100 100 100 98 100 76 5 5 5 5 5 8
100 99 80 99 91 68 83 69 57 75 5 12 96 100 100 100 100 100 100 100 100 100 100 100 100 92 100 100 100 100 100 100 100 100 100 100 100 100 10 5 5 5 5 5 80
100 100 100 100 100 64 62 54 81 100 100 98 100 100 100 100 100 100 100 100 100 100 100 100 100 98 100 100 100 100 100 100 100 100 100 100 100 73 13 5 5 5 5 5 78
100 100 100 100 89 91 99 84 100 100 86 100 100 100 100 93 100 100 100 100 100 100 100 100 100 100 100 100 100 100 100 100 100 100 100 100 86 54 13 5 5 5 5 5 79
87 100 100 100 98 100 100 100 88 61 99 95 100 100 100 100 100 92 100 100 100 100 100 100 100 100 100 100 100 100 100 100 100 100 100 97 94 75 8 5 5 5 5 5 9
92 92 100 100 100 100 100 78 100 100 100 52 100 100 100 100 100 100 100 100 100 100 100 100 100 100 100 100 100 100 100 100 100 100 100 100 100 67 5 0 5 5 5 5 10
100 94 79 99 100 100 97 83 100 100 81 100 100 100 100 97 100 100 100 100 100 100 100 100 100 100 100 100 100 100 100 100 100 100 100 98 100 32 4 0 5 5 5 57 70

GFSSW_prec_cloud_309.txt.gz
Cloud_Cover
86 95 6 6 1 0 0 2 4 0 5 100 80 8 5 5 5 5 0 0 0 0 0 4 4 5 5 0 0 0 1 0 0 0 0 0 0 0 0 0 0 0 0 0 0
100 99 74 15 0 4 1 0 0 0 3 2 5 5 5 3 0 5 40 5 5 4 5 4 2 2 1 5 5 4 3 1 5 0 0 0 0 0 0 0 0 0 0 0 0
89 100 100 100 85 0 0 0 0 0 0 0 2 5 28 6 35 5 100 68 96 7 4 5 5 5 5 5 5 0 4 1 0 0 0 0 0 0 0 0 0 0 5 5 5
30 66 40 68 94 44 11 0 0 0 6 10 89 88 46 58 97 80 25 100 100 89 0 2 4 5 5 4 0 0 0 0 0 2 5 2 0 0 0 0 2 6 5 5 5
100 90 57 70 65 96 66 55 100 100 100 100 100 44 29 90 94 96 100 100 14 3 1 0 0 0 0 0 0 0 0 5 5 6 5 5 4 5 4 5 5 98 25 5 58
34 93 100 100 100 100 100 100 100 100 100 100 100 100 100 100 100 100 92 35 5 4 5 1 4 4 5 5 1 1 0 2 10 6 5 5 76 6 59 34 5 84 29 23 10
100 86 99 100 100 100 100 100 100 100 100 100 100 100 100 100 89 84 39 1 0 5 5 5 5 5 5 5 5 18 12 5 5 5 5 5 5 5 29 96 65 34 100 29 100
85 100 99 100 100 100 100 75 68 58 92 99 64 66 5 18 34 3 0 0 0 3 5 5 5 5 5 7 50 97 85 50 5 12 5 18 5 18 79 30 63 37 5 90 100
27 59 50 18 100 64 11 5 60 14 41 14 21 26 7 6 6 1 0 0 0 0 1 1 0 0 4 5 33 41 94 90 42 9 5 5 12 67 32 21 91 60 88 100 100
99 100 100 100 81 7 5 93 5 18 12 24 8 4 5 16 13 14 5 4 0 0 0 0 0 0 3 4 17 32 70 76 77 22 5 5 23 5 5 34 56 58 94 91 60
100 100 100 100 100 98 98 93 50 60 8 23 46 35 34 93 96 100 100 5 5 5 2 2 0 2 0 0 1 0 0 0 7 23 46 7 81 74 36 94 100 96 41 70 100
100 100 100 100 93 100 83 94 62 90 54 34 99 79 92 100 80 85 5 5 5 5 5 5 3 0 0 4 5 5 4 2 5 5 5 22 84 95 39 89 100 100 100 100 100
100 100 100 100 61 80 97 100 92 60 62 3 27 85 61 34 19 18 43 30 15 39 5 5 5 5 5 5 5 5 5 5 5 79 83 92 65 100 100 100 100 100 100 100 100
100 100 100 100 85 64 100 6 5 17 85 10 5 5 5 5 82 100 100 100 99 100 78 5 25 5 40 5 52 5 5 5 5 100 100 98 100 100 100 100 100 100 100 100 100
50 100 100 100 100 99 69 5 94 69 33 3 6 5 6 32 39 100 100 100 100 95 96 76 52 81 60 73 67 5 5 8 92 100 100 100 100 100 100 99 100 98 82 47 32
5 4 71 84 49 88 96 16 10 51 52 36 64 66 53 83 91 100 100 100 66 95 48 88 100 95 100 5 5 5 5 92 98 100 100 100 100 100 23 35 40 65 69 27 5
4 4 11 100 94 62 100 51 50 89 12 75 81 97 6 5 10 100 100 100 100 84 62 97 100 100 69 5 5 16 63 100 100 100 100 100 100 100 62 95 72 44 5 4 5
4 31 0 88 99 64 99 31 65 40 97 27 41 46 5 65 34 100 100 100 100 75 100 100 100 100 60 68 10 61 99 100 100 100 100 100 100 91 96 77 58 7 5 0 5
2 5 10 56 97 99 50 28 62 94 96 100 34 3 73 5 5 78 100 100 100 100 100 100 87 56 63 91 97 100 100 100 100 100 100 100 100 100 100 83 23 5 5 5 5
4 3 7 1 59 98 71 35 8 49 86 69 5 5 76 100 100 86 99 100 100 100 98 97 50 59 85 50 100 100 100 100 100 100 100 100 100 100 92 56 5 5 5 5 5
5 100 99 95 97 57 100 59 100 71 23 19 24 63 80 80 99 100 100 86 100 100 100 96 70 85 90 96 100 100 100 100 100 100 100 100 100 89 98 16 5 5 5 5 41
4 90 19 100 100 100 100 100 95 97 34 35 83 100 100 100 98 100 72 100 36 100 100 100 95 96 89 100 100 100 100 100 100 100 100 100 85 82 58 5 28 5 5 5 98
14 52 99 100 100 100 100 100 100 100 100 100 100 100 100 100 97 100 100 100 99 100 100 100 96 95 100 100 100 100 100 100 100 100 100 99 84 100 14 5 5 5 5 86 99
52 45 99 100 100 100 100 100 100 100 87 100 100 100 100 100 100 100 84 81 99 100 100 100 100 100 100 100 100 100 100 100 100 100 100 100 57 100 8 5 5 5 19 96 100
98 88 85 100 100 100 100 100 100 96 100 100 98 100 100 100 71 97 77 86 100 100 100 100 100 100 100 100 100 100 100 100 100 100 100 100 77 67 5 0 5 27 96 100 99
98 82 34 93 100 100 100 100 100 100 100 100 100 100 100 100 100 100 100 100 100 100 100 100 100 100 100 100 100 100 100 100 100 100 100 100 93 77 4 2 5 59 100 93 86
63 99 88 100 98 100 100 100 99 100 73 100 100 100 100 100 99 96 100 100 100 100 100 100 100 100 100 100 100 100 100 100 100 100 100 97 88 6 2 0 5 5 100 83 95

GFSSW_prec_cloud_315.txt.gz
Cloud_Cover
75 100 100 95 30 0 3 51 74 33 30 44 16 5 5 5 4 0 0 0 0 0 1 19 8 5 0 0 0 0 0 0 0 0 0 0 0 0 0 0 0 0 0 0 0
32 100 77 74 94 54 18 81 57 100 67 6 30 39 38 5 0 0 0 0 5 5 14 5 5 4 4 5 4 0 0 0 0 0 0 0 0 0 0 0 0 0 0 0 0
89 100 89 85 100 100 99 85 42 88 100 55 97 38 38 2 0 0 0 1 5 5 39 40 44 36 5 6 4 0 0 0 0 0 0 0 0 0 0 0 0 0 0 0 0
100 100 100 100 95 99 100 41 92 100 89 98 99 60 2 5 3 0 0 0 5 69 100 83 12 7 5 3 0 0 0 0 0 0 0 0 0 0 0 0 0 0 0 0 0
100 100 100 100 100 100 100 100 98 100 100 100 70 89 6 5 3 5 5 38 84 100 100 60 15 0 0 0 0 0 0 0 0 0 0 0 0 0 0 0 1 2 3 4 5
18 53 97 100 100 100 100 100 100 100 100 100 100 100 100 93 100 84 71 88 68 37 21 20 5 2 0 0 0 0 2 0 4 4 5 4 3 0 0 0 3 0 1 3 5
100 46 5 7 95 97 99 100 100 100 100 73 96 100 100 100 100 98 100 98 100 41 28 5 5 3 0 0 3 5 5 5 4 5 5 5 5 2 5 5 5 5 5 5 5
89 70 99 100 100 100 82 7 100 100 93 100 97 99 70 89 93 88 24 5 78 100 80 5 5 5 4 4 4 4 4 5 0 1 4 4 1 0 1 5 5 83 82 6 5
6 7 25 100 100 100 100 54 93 100 19 62 93 70 39 31 22 97 66 14 21 57 12 7 5 5 5 4 4 5 5 5 2 0 0 0 0 0 0 5 5 27 50 24 88
0 4 36 100 100 100 100 14 33 75 100 96 34 6 20 7 6 5 12 93 100 73 5 8 15 5 3 4 4 1 23 2 3 0 0 0 0 0 0 5 5 5 12 90 88
2 0 11 22 98 81 42 5 5 5 8 85 41 12 5 5 5 6 86 18 26 5 5 5 5 5 5 5 5 5 0 0 0 0 0 0 0 5 3 0 5 28 91 61 7
0 0 0 18 77 31 16 20 5 2 5 12 5 5 5 5 8 64 5 4 5 5 5 5 5 40 10 5 5 5 4 5 1 5 4 0 0 5 1 5 9 92 80 63 47
0 0 0 0 33 0 0 0 4 92 36 6 48 60 8 3 16 5 5 5 5 5 30 6 65 92 63 11 5 23 5 5 20 5 0 3 1 5 65 22 80 86 100 73 44
0 0 0 0 34 12 0 0 100 100 30 3 4 4 8 5 5 5 5 5 5 5 6 12 99 97 100 87 24 99 70 5 31 5 5 5 39 16 100 99 100 95 77 96 100
0 0 14 3 26 71 8 10 100 43 0 2 4 29 71 6 5 5 5 5 5 5 46 54 62 100 100 94 74 89 93 85 28 5 37 5 28 78 100 100 95 92 85 100 92
0 0 7 27 14 34 4 62 23 36 44 3 46 55 9 25 5 5 5 15 5 5 5 7 56 90 100 78 100 49 84 74 5 35 34 23 75 100 100 100 100 98 100 100 100
0 0 29 0 29 3 20 49 55 63 4 30 25 88 54 4 5 5 40 17 30 6 5 5 25 98 98 100 62 42 79 22 18 82 5 100 100 100 96 100 100 100 100 96 90
0 17 22 0 0 2 6 88 84 0 4 35 36 20 2 5 5 5 5 50 73 83 39 18 31 57 94 88 97 70 93 51 76 83 19 100 100 100 100 100 100 100 37 6 5
98 28 19 0 0 2 44 68 3 3 5 5 3 1 48 79 40 5 11 100 100 96 72 93 20 100 14 61 98 97 77 66 42 100 67 100 100 100 100 100 38 50 5 5 5
100 44 1 0 1 40 99 5 5 5 34 29 5 5 45 63 14 49 33 26 94 99 98 72 62 100 98 96 96 80 84 76 100 84 100 100 99 100 100 92 5 5 5 5 5
100 91 0 33 9 89 86 33 12 64 46 26 7 44 96 80 68 100 96 94 94 99 100 97 94 98 97 64 98 78 97 94 100 94 100 100 100 100 92 6 5 9 5 17 74
100 100 96 32 95 100 100 5 5 61 100 80 77 76 100 98 100 100 99 97 98 87 77 98 94 81 94 99 90 89 77 100 100 100 100 100 100 78 5 6 55 5 5 62 100
100 100 100 100 76 94 13 88 77 100 100 100 100 93 100 95 100 100 96 63 100 100 93 79 95 82 98 100 86 90 100 100 100 100 100 100 96 16 10 78 15 32 35 100 100
100 100 100 100 100 66 89 100 97 100 100 100 100 100 100 100 100 94 96 88 99 100 100 100 100 100 100 99 100 100 100 100 100 100 100 100 94 18 34 44 5 6 100 100 100
99 74 100 100 100 100 100 100 100 100 100 100 100 100 100 100 100 100 100 100 100 100 100 97 100 100 100 100 100 100 100 100 98 91 100 99 99 12 10 5 5 41 100 100 100
100 100 100 100 100 100 100 100 100 100 100 100 100 100 100 100 73 100 100 100 91 81 100 100 100 100 100 100 100 100 100 95 100 100 100 100 95 7 5 5 4 100 100 100 100
76 100 100 100 100 100 100 100 100 100 100 100 100 100 100 99 100 100 100 100 100 100 100 100 100 100 100 100 100 100 98 96 100 100 100 100 27 29 5 2 5 100 100 100 100